slug.id,slug.ts
1,"2018-05-09 23:29:56"
6,"2018-05-10 00:06:28"
5,"2018-05-10 00:12:51"
7,"2018-05-10 00:14:15"
8,"2018-05-10 00:14:27"
9,"2018-05-10 00:14:29"
10,"2018-05-10 00:14:38"
11,"2018-05-10 00:14:47"
12,"2018-05-10 00:14:50"
13,"2018-05-10 00:14:51"
14,"2018-05-10 00:14:54"
15,"2018-05-10 00:15:11"
16,"2018-05-10 00:15:16"
17,"2018-05-10 00:15:22"
18,"2018-05-10 00:15:26"
19,"2018-05-10 00:15:34"
23,"2018-05-10 00:15:41"
24,"2018-05-10 00:15:43"
25,"2018-05-10 00:15:53"
26,"2018-05-10 00:16:03"
27,"2018-05-10 00:16:07"
29,"2018-05-10 00:16:10"
30,"2018-05-10 00:16:24"
32,"2018-05-10 00:16:27"
33,"2018-05-10 00:16:33"
34,"2018-05-10 00:16:40"
35,"2018-05-10 00:16:50"
36,"2018-05-10 00:16:58"
37,"2018-05-10 00:17:03"
38,"2018-05-10 00:17:16"
39,"2018-05-10 00:17:26"
40,"2018-05-10 00:17:31"
42,"2018-05-10 00:17:41"
44,"2018-05-10 00:17:47"
45,"2018-05-10 00:17:54"
46,"2018-05-10 00:18:01"
48,"2018-05-10 00:18:14"
49,"2018-05-10 00:18:20"
50,"2018-05-10 00:18:27"
51,"2018-05-10 00:18:37"
52,"2018-05-10 00:18:42"
53,"2018-05-10 00:18:49"
54,"2018-05-10 00:18:58"
55,"2018-05-10 00:19:02"
56,"2018-05-10 00:19:06"
57,"2018-05-10 00:19:11"
58,"2018-05-10 00:19:23"
59,"2018-05-10 00:19:29"
60,"2018-05-10 00:19:31"
61,"2018-05-10 00:19:39"
62,"2018-05-10 00:19:51"
63,"2018-05-10 00:20:03"
64,"2018-05-10 00:20:13"
65,"2018-05-10 00:20:17"
66,"2018-05-10 00:20:29"
67,"2018-05-10 00:20:37"
68,"2018-05-10 00:20:46"
69,"2018-05-10 00:20:57"
70,"2018-05-10 00:21:09"
71,"2018-05-10 00:21:15"
72,"2018-05-10 00:21:22"
73,"2018-05-10 00:21:25"
74,"2018-05-10 00:21:35"
75,"2018-05-10 00:21:46"
76,"2018-05-10 00:21:56"
77,"2018-05-10 00:22:01"
78,"2018-05-10 00:22:10"
79,"2018-05-10 00:22:20"
80,"2018-05-10 00:22:26"
81,"2018-05-10 00:22:30"
83,"2018-05-10 00:22:38"
84,"2018-05-10 00:22:44"
85,"2018-05-10 00:22:59"
86,"2018-05-10 00:23:05"
87,"2018-05-10 00:23:17"
88,"2018-05-10 00:23:19"
89,"2018-05-10 00:23:25"
90,"2018-05-10 00:23:32"
91,"2018-05-10 00:23:33"
92,"2018-05-10 00:23:42"
93,"2018-05-10 00:23:49"
94,"2018-05-10 00:24:00"
95,"2018-05-10 00:24:02"
96,"2018-05-10 00:24:10"
97,"2018-05-10 00:24:20"
98,"2018-05-10 00:24:29"
99,"2018-05-10 00:24:35"
100,"2018-05-10 00:24:40"
101,"2018-05-10 00:24:50"
102,"2018-05-10 00:25:00"
103,"2018-05-10 00:25:07"
105,"2018-05-10 00:25:15"
106,"2018-05-10 00:25:27"
107,"2018-05-10 00:25:40"
108,"2018-05-10 00:25:47"
109,"2018-05-10 00:25:58"
110,"2018-05-10 00:26:11"
111,"2018-05-10 00:26:21"
113,"2018-05-10 00:26:32"
114,"2018-05-10 00:26:36"
